GW5922 Weather Reports


time (UTC)temp
C
wind
direction
speed
KPH
gust
KPH
rain 1hr
cm
rain 24hr
cm
rain mn
cm
humidity
%
barometer
mb
20260504160222 17 163 17.7 35.4 0.00 0.00 0.00 45 1011.3
20260504151150 16 284 17.7 32.2 0.00 0.00 0.00 43 1012.0
20260504150647 16 248 16.1 32.2 0.00 0.00 0.00 45 1012.0
20260504150144 16 252 14.5 25.7 0.00 0.00 0.00 46 1012.0
20260504141113 14 205 11.3 20.9 0.00 0.00 0.00 48 1012.3
20260504140610 14 271 9.7 20.9 0.00 0.00 0.00 48 1012.3
20260504140105 14 248 8.0 16.1 0.00 0.00 0.00 50 1012.3
20260504130534 11 294 4.8 14.5 0.00 0.00 0.00 58 1012.7
20260504110421 7 254 6.4 11.3 0.00 0.00 0.00 63 1013.0
20260504100338 6 262 3.2 6.4 0.00 0.00 0.00 65 1012.7
20260504081731 7 261 6.4 9.7 0.00 0.00 0.00 63 1012.7
20260504081228 7 269 6.4 9.7 0.00 0.00 0.00 63 1012.7
20260504080724 7 274 4.8 9.7 0.00 0.00 0.00 63 1012.7
20260504080220 7 299 3.2 9.7 0.00 0.00 0.00 64 1012.7
20260504070148 7 257 1.6 4.8 0.00 0.00 0.00 62 1012.7
20260504060109 8 275 3.2 6.4 0.00 0.00 0.00 59 1012.7
20260504050537 8 256 6.4 9.7 0.00 0.00 0.00 58 1012.7
20260504045531 8 268 6.4 8.0 0.00 0.00 0.00 58 1012.3
20260504045026 8 272 4.8 9.7 0.00 0.00 0.00 58 1012.7
20260504044524 8 269 4.8 9.7 0.00 0.00 0.00 58 1012.7
20260504044021 8 266 4.8 6.4 0.00 0.00 0.00 58 1012.7
20260504043518 8 266 4.8 8.0 0.00 0.00 0.00 57 1012.7
20260504043015 8 266 4.8 9.7 0.00 0.00 0.00 57 1012.7
20260504042512 8 248 3.2 9.7 0.00 0.00 0.00 57 1012.7
20260504042009 8 257 3.2 8.0 0.00 0.00 0.00 56 1012.3
20260504041505 9 255 4.8 8.0 0.00 0.00 0.00 56 1012.3
20260504041001 9 253 4.8 8.0 0.00 0.00 0.00 55 1012.3
20260504040458 9 257 4.8 9.7 0.00 0.00 0.00 55 1012.3
20260504035954 9 254 6.4 9.7 0.00 0.00 0.00 55 1012.3
20260504035452 9 271 6.4 9.7 0.00 0.00 0.00 55 1012.3
20260504034948 10 271 6.4 8.0 0.00 0.00 0.00 55 1012.3
20260504034446 10 249 6.4 8.0 0.00 0.00 0.00 54 1012.0
20260504033943 10 246 6.4 9.7 0.00 0.00 0.00 54 1012.0
20260504033441 10 264 6.4 9.7 0.00 0.00 0.00 54 1012.0
20260504032938 10 280 4.8 8.0 0.00 0.00 0.00 53 1012.0
20260504032434 10 276 6.4 9.7 0.00 0.00 0.00 54 1012.0
20260504031931 10 272 6.4 9.7 0.00 0.00 0.00 53 1012.0
20260504031428 10 276 4.8 9.7 0.00 0.00 0.00 53 1012.0
20260504030925 10 285 4.8 8.0 0.00 0.00 0.00 53 1011.7
20260504030422 10 283 4.8 8.0 0.00 0.00 0.00 53 1011.7
20260504025917 10 269 4.8 8.0 0.00 0.00 0.00 54 1011.7
20260504025415 10 283 4.8 6.4 0.00 0.00 0.00 54 1011.7
20260504024912 10 270 4.8 6.4 0.00 0.00 0.00 54 1012.0
20260504024409 10 263 4.8 8.0 0.00 0.00 0.00 53 1012.0
20260504023906 10 256 4.8 8.0 0.00 0.00 0.00 52 1012.0
20260504023402 10 250 4.8 8.0 0.00 0.00 0.00 52 1012.0
20260504022857 10 249 4.8 8.0 0.00 0.00 0.00 53 1012.0
20260504022354 10 271 4.8 9.7 0.00 0.00 0.00 53 1012.0
20260504021851 10 271 4.8 9.7 0.00 0.00 0.00 53 1012.0
20260504021348 10 262 4.8 6.4 0.00 0.00 0.00 53 1012.0
20260504020845 10 258 4.8 6.4 0.00 0.00 0.00 53 1011.7
20260504020342 10 264 4.8 6.4 0.00 0.00 0.00 52 1011.7
20260504015838 10 263 6.4 9.7 0.00 0.00 0.00 52 1011.7
20260504015334 10 250 6.4 11.3 0.00 0.00 0.00 52 1011.7
20260504014831 10 238 4.8 11.3 0.00 0.00 0.00 51 1011.7
20260504014326 10 257 4.8 8.0 0.00 0.00 0.00 51 1011.7
20260504013825 10 260 3.2 6.4 0.00 0.00 0.00 50 1011.7
20260504013322 10 260 3.2 4.8 0.00 0.00 0.00 49 1011.7
20260504012819 10 253 3.2 4.8 0.00 0.00 0.00 49 1011.7
20260504012316 11 253 3.2 8.0 0.00 0.00 0.00 49 1011.7
20260504011814 11 255 4.8 8.0 0.00 0.00 0.00 49 1011.7
20260504011310 11 252 4.8 8.0 0.00 0.00 0.00 48 1011.7
20260504010806 11 255 4.8 8.0 0.00 0.00 0.00 47 1011.7
20260504010302 11 252 3.2 8.0 0.00 0.00 0.00 48 1011.7
20260504005759 11 271 4.8 8.0 0.00 0.00 0.00 47 1011.7
20260504005255 11 264 4.8 8.0 0.00 0.00 0.00 46 1011.7
20260504004753 11 280 4.8 8.0 0.00 0.00 0.00 46 1011.3
20260504004250 11 257 4.8 8.0 0.00 0.00 0.00 45 1011.3
20260504003747 12 265 4.8 8.0 0.00 0.00 0.00 46 1011.3
20260504003244 12 271 6.4 9.7 0.00 0.00 0.00 45 1011.3
20260504002740 12 288 4.8 9.7 0.00 0.00 0.00 45 1011.0
20260504002237 12 284 4.8 11.3 0.00 0.00 0.00 44 1011.0
20260504001735 12 289 6.4 12.9 0.00 0.00 0.00 44 1011.0
20260504001232 12 270 6.4 12.9 0.00 0.00 0.00 43 1011.0
20260504000728 12 287 8.0 16.1 0.00 0.00 0.00 44 1011.0
20260504000226 12 288 8.0 16.1 0.00 0.00 0.00 43 1011.0
20260503235724 13 266 6.4 11.3 0.00 0.00 0.00 43 1011.0
20260503235220 13 285 6.4 11.3 0.00 0.00 0.00 42 1011.0
20260503234718 13 293 8.0 14.5 0.00 0.00 0.00 41 1010.6
20260503234216 13 286 8.0 14.5 0.00 0.00 0.00 41 1010.6
20260503233713 13 269 9.7 16.1 0.00 0.00 0.00 40 1010.6
20260503233208 13 283 11.3 20.9 0.00 0.00 0.00 39 1010.6
20260503232706 14 278 11.3 20.9 0.00 0.00 0.00 38 1010.6
20260503232203 14 309 9.7 20.9 0.00 0.00 0.00 38 1010.6
20260503231701 14 310 9.7 17.7 0.00 0.00 0.00 40 1010.6
20260503231157 14 285 11.3 19.3 0.00 0.00 0.00 39 1010.6
20260503230654 15 272 8.0 19.3 0.00 0.00 0.00 39 1010.6
20260503230151 14 300 6.4 16.1 0.00 0.00 0.00 40 1010.6
20260503225648 14 290 9.7 20.9 0.00 0.00 0.00 39 1010.6
20260503225148 14 300 11.3 20.9 0.00 0.00 0.00 39 1010.6
20260503224646 14 283 11.3 24.1 0.00 0.00 0.00 40 1010.3
20260503224143 14 317 11.3 24.1 0.00 0.00 0.00 39 1010.3
20260503223641 14 252 11.3 29.0 0.00 0.00 0.00 38 1010.3
20260503223137 14 278 12.9 20.9 0.00 0.00 0.00 38 1010.3
20260503222635 15 271 12.9 22.5 0.00 0.00 0.00 38 1010.6
20260503222132 15 285 16.1 32.2 0.00 0.00 0.00 37 1010.3
20260503221631 15 298 16.1 32.2 0.00 0.00 0.00 38 1010.3
20260503221128 14 274 12.9 29.0 0.00 0.00 0.00 39 1010.3
20260503220624 13 317 11.3 25.7 0.00 0.00 0.00 39 1010.3
20260503220121 13 300 9.7 25.7 0.00 0.00 0.00 37 1010.3
20260503215618 13 312 8.0 16.1 0.00 0.00 0.00 38 1010.3
20260503215114 13 276 12.9 33.8 0.00 0.00 0.00 39 1010.3
20260503214613 14 343 12.9 33.8 0.00 0.00 0.00 37 1010.3
20260503214109 14 307 11.3 22.5 0.00 0.00 0.00 36 1010.3
20260503213608 15 286 11.3 24.1 0.00 0.00 0.00 38 1010.3
20260503213103 15 286 11.3 24.1 0.00 0.00 0.00 35 1010.3
20260503212601 15 309 11.3 20.9 0.00 0.00 0.00 35 1010.3
20260503212059 15 340 11.3 20.9 0.00 0.00 0.00 35 1010.3
20260503211556 15 304 14.5 33.8 0.00 0.00 0.00 38 1010.3
20260503211051 15 276 17.7 33.8 0.00 0.00 0.00 35 1010.3
20260503210548 14 283 14.5 32.2 0.00 0.00 0.00 36 1010.3
20260503210044 14 269 12.9 32.2 0.00 0.00 0.00 36 1010.0
20260503205541 14 267 12.9 30.6 0.00 0.00 0.00 37 1010.3
20260503205037 15 335 16.1 30.6 0.00 0.00 0.00 35 1010.3
20260503204534 15 307 17.7 30.6 0.00 0.00 0.00 35 1010.3
20260503204031 14 312 14.5 25.7 0.00 0.00 0.00 35 1010.3
20260503203528 15 311 11.3 25.7 0.00 0.00 0.00 35 1010.3
20260503203025 15 300 8.0 22.5 0.00 0.00 0.00 36 1010.3
20260503202523 15 271 9.7 22.5 0.00 0.00 0.00 38 1010.3
20260503202021 14 275 14.5 25.7 0.00 0.00 0.00 36 1010.3
20260503201519 13 304 16.1 37.0 0.00 0.00 0.00 38 1010.3
20260503201016 13 281 17.7 37.0 0.00 0.00 0.00 36 1010.6
20260503200512 13 282 16.1 32.2 0.00 0.00 0.00 36 1010.3
20260503200009 13 327 14.5 32.2 0.00 0.00 0.00 36 1010.3
20260503195506 13 309 17.7 35.4 0.00 0.00 0.00 37 1010.6
20260503195003 13 297 20.9 37.0 0.00 0.00 0.00 36 1010.6
20260503194501 13 281 19.3 38.6 0.00 0.00 0.00 36 1010.6
20260503194001 13 298 14.5 38.6 0.00 0.00 0.00 37 1010.6
20260503193457 13 295 12.9 25.7 0.00 0.00 0.00 40 1011.0
20260503192952 12 297 14.5 29.0 0.00 0.00 0.00 37 1010.6
20260503192449 13 288 14.5 29.0 0.00 0.00 0.00 39 1011.0
20260503191944 12 325 14.5 25.7 0.00 0.00 0.00 39 1010.6
20260503191442 12 336 12.9 24.1 0.00 0.00 0.00 40 1011.0
20260503190938 12 330 12.9 29.0 0.00 0.00 0.00 41 1011.0
20260503190436 12 304 16.1 32.2 0.00 0.00 0.00 38 1011.0
20260503185933 12 293 20.9 37.0 0.00 0.00 0.00 40 1011.0
20260503185429 12 291 20.9 37.0 0.00 0.00 0.00 38 1011.3
20260503184928 12 297 14.5 35.4 0.00 0.00 0.00 40 1011.0
20260503184425 12 300 11.3 27.4 0.00 0.00 0.00 41 1011.3
20260503183922 12 311 12.9 27.4 0.00 0.00 0.00 39 1011.0
20260503183418 12 306 14.5 25.7 0.00 0.00 0.00 40 1011.3
20260503182915 12 261 12.9 25.7 0.00 0.00 0.00 41 1011.3
20260503182414 12 304 14.5 32.2 0.00 0.00 0.00 41 1011.3
20260503181911 12 289 16.1 32.2 0.00 0.00 0.00 39 1011.3
20260503181408 12 302 16.1 37.0 0.00 0.00 0.00 40 1011.7
20260503180905 11 286 17.7 37.0 0.00 0.00 0.00 40 1011.3
20260503180403 12 305 20.9 41.8 0.00 0.00 0.00 37 1011.3
20260503175859 12 295 17.7 41.8 0.00 0.00 0.00 41 1011.0
20260503175357 12 276 12.9 27.4 0.00 0.00 0.00 41 1011.3
20260503174852 11 34 12.9 25.7 0.00 0.00 0.00 44 1011.7
20260503174351 12 287 14.5 27.4 0.00 0.00 0.00 40 1011.3
20260503173850 12 295 16.1 29.0 0.00 0.00 0.00 44 1011.3
20260503173347 11 322 17.7 33.8 0.00 0.00 0.00 39 1011.7
20260503172844 11 265 17.7 41.8 0.00 0.00 0.00 40 1011.7
20260503172342 12 269 14.5 41.8 0.00 0.00 0.00 39 1011.7
20260503171837 12 342 12.9 24.1 0.00 0.00 0.00 41 1011.7
20260503171334 11 358 12.9 25.7 0.00 0.00 0.00 45 1011.7
20260503170832 11 8 12.9 27.4 0.00 0.00 0.00 40 1011.7
20260503170328 11 265 12.9 27.4 0.00 0.00 0.00 39 1011.7